Location: Tamazert
(32.6352°N, 5.2072°W)
Time: 17:06:27
(UTC+00:00)

A-11 Canister half - All Passes

Search period start: 26 September 2022 00:00
Search period end: 06 October 2022 00:00
Orbit: 1524 x 1684 km, 47.3° (Epoch: 25 September)

Date Brightness Start Highest point End Pass type
(mag) Time Alt. Az. Time Alt. Az. Time Alt. Az.
26 Sep - 00:26:12 10° NW 00:35:57 72° SW 00:45:59 10° SE visible
26 Sep - 02:33:54 10° W 02:39:58 18° SW 02:46:07 10° SSW night (unlit)
26 Sep - 15:40:24 10° SSW 15:49:19 54° SE 15:58:22 10° ENE daylight
26 Sep - 17:45:17 10° WSW 17:54:21 54° NNW 18:03:40 10° NE daylight
26 Sep - 19:52:58 10° WNW 20:01:17 33° N 20:09:51 10° ENE visible
26 Sep - 21:59:25 10° NW 22:08:33 45° NNE 22:17:57 10° E visible
27 Sep - 00:04:29 10° NW 00:14:15 76° SW 00:24:17 10° SE visible
27 Sep - 02:11:52 10° W 02:18:19 20° SW 02:24:53 10° SSW night (unlit)
27 Sep - 15:18:50 10° SSW 15:27:41 51° SE 15:36:37 10° ENE daylight
27 Sep - 17:23:32 10° WSW 17:32:38 56° NNW 17:41:58 10° NE daylight
27 Sep - 19:31:10 10° WNW 19:39:29 33° N 19:48:01 10° ENE visible
27 Sep - 21:37:43 10° NW 21:46:46 44° NNE 21:56:06 10° E visible
27 Sep - 23:42:47 10° NW 23:52:33 79° SW 00:02:36 10° SE visible
28 Sep - 01:49:53 10° W 01:56:40 21° SW 02:03:36 10° S night (unlit)
28 Sep - 14:57:17 10° SSW 15:06:02 48° SE 15:14:52 10° ENE daylight
28 Sep - 17:01:46 10° WSW 17:10:54 59° NNW 17:20:15 10° NE daylight
28 Sep - 19:09:22 10° WNW 19:17:40 34° N 19:26:12 10° ENE visible
28 Sep - 21:16:01 10° NW 21:25:00 43° NNE 21:34:14 10° E visible
28 Sep - 23:21:06 10° NW 23:30:51 83° SW 23:40:54 10° SE visible
29 Sep - 01:27:56 10° WNW 01:35:02 23° SW 01:42:16 10° S night (unlit)
29 Sep - 14:35:45 10° SSW 14:44:24 45° SE 14:53:06 10° ENE daylight
29 Sep - 16:40:01 10° WSW 16:49:10 61° NNW 16:58:32 10° NE daylight
29 Sep - 18:47:34 10° WNW 18:55:52 34° N 19:04:23 10° NE visible
29 Sep - 20:54:18 10° NW 21:03:13 41° NNE 21:12:23 10° E visible
29 Sep - 22:59:24 10° NW 23:09:08 87° SW 23:19:10 10° SE visible
30 Sep - 01:06:01 10° WNW 01:13:23 24° SW 01:20:54 10° S night (unlit)
30 Sep - 14:14:13 10° SSW 14:22:46 43° SE 14:31:20 10° ENE daylight
30 Sep - 16:18:16 10° WSW 16:27:27 63° NNW 16:36:50 10° NE daylight
30 Sep - 18:25:46 10° WNW 18:34:04 34° N 18:42:35 10° NE visible
30 Sep - 20:32:36 10° NW 20:41:26 40° NNE 20:50:30 10° E visible
30 Sep - 22:37:43 10° NW 22:47:26 90° E 22:57:27 10° SE visible
01 Oct - 00:44:07 10° WNW 00:51:43 26° SW 00:59:30 10° S night (unlit)
01 Oct - 13:52:43 10° SSW 14:01:08 40° SE 14:09:34 10° ENE daylight
01 Oct - 15:56:31 10° WSW 16:05:45 66° NNW 16:15:07 10° NE daylight
01 Oct - 18:03:57 10° WNW 18:12:16 34° N 18:20:47 10° NE daylight
01 Oct - 20:10:54 10° NW 20:19:38 39° NNE 20:28:38 10° E visible
01 Oct - 22:16:02 10° NW 22:25:43 86° NE 22:35:43 10° SE visible
02 Oct - 00:22:15 10° WNW 00:30:04 28° SW 00:38:05 10° S visible
02 Oct - 13:31:13 10° SSW 13:39:30 37° SE 13:47:46 10° ENE daylight
02 Oct - 15:34:48 10° WSW 15:44:02 69° NNW 15:53:26 10° NE daylight
02 Oct - 17:42:08 10° WNW 17:50:29 35° N 17:59:00 10° NE daylight
02 Oct - 19:49:10 10° NW 19:57:51 38° NNE 20:06:46 10° E visible
02 Oct - 21:54:20 10° NW 22:04:00 83° NE 22:13:58 10° SE visible
03 Oct - 00:00:25 10° WNW 00:08:25 30° SW 00:16:38 10° S visible
03 Oct - 13:09:44 10° S 13:17:52 35° SE 13:25:59 10° ENE daylight
03 Oct - 15:13:04 10° WSW 15:22:19 72° NW 15:31:43 10° NE daylight
03 Oct - 17:20:20 10° WNW 17:28:41 35° NNW 17:37:14 10° NE daylight
03 Oct - 19:27:28 10° NW 19:36:04 37° NNE 19:44:53 10° E visible
03 Oct - 21:32:40 10° NW 21:42:17 80° NE 21:52:13 10° SE visible
03 Oct - 23:38:35 10° WNW 23:46:46 32° SW 23:55:10 10° S visible
04 Oct - 12:48:16 10° S 12:56:15 33° SE 13:04:11 10° ENE daylight
04 Oct - 14:51:20 10° WSW 15:00:38 75° NW 15:10:02 10° NE daylight
04 Oct - 16:58:31 10° WNW 17:06:54 36° NNW 17:15:27 10° NE daylight
04 Oct - 19:05:44 10° NW 19:14:16 37° NNE 19:23:01 10° ENE visible
04 Oct - 21:10:59 10° NW 21:20:34 76° NE 21:30:28 10° ESE visible
04 Oct - 23:16:46 10° WNW 23:25:06 34° SW 23:33:41 10° S visible
05 Oct - 12:26:49 10° S 12:34:37 31° SE 12:42:22 10° ENE daylight
05 Oct - 14:29:38 10° WSW 14:38:57 78° NW 14:48:20 10° NE daylight
05 Oct - 16:36:42 10° W 16:45:07 37° NNW 16:53:41 10° NE daylight
05 Oct - 18:44:00 10° NW 18:52:29 36° NNE 19:01:10 10° ENE visible
05 Oct - 20:49:18 10° NW 20:58:51 73° NE 21:08:41 10° ESE visible
05 Oct - 22:54:58 10° WNW 23:03:27 36° SW 23:12:11 10° SSE visible
